Location: Lane
(33.5226°N, 79.8788°W)
Time: 02:06:45
(UTC+00:00)

Vanguard 1 Rocket - Pass Details

Date: 12 October 2022
Orbit: 650 x 4225 km, 34.3° (Epoch: 06 December)

Event Time Altitude Azimuth Distance (km) Brightness Sun altitude
Rises 01:38:57 0° 274° (W) 8,367 13.3 -35.6°
Reaches altitude 10° 01:45:11 10° 275° (W) 7,104 12.6 -36.8°
Maximum altitude 02:07:32 89° 9° (N) 2,610 9.4 -41.2°
Enters shadow 02:08:44 80° 94° (E) 2,539 9.2 -41.4°
